Location: Sperry Observatory
(40.6664°N, 74.3236°W)
Time: 10:02:00
(UTC-04:00)

UOSAT-12 - Visible Passes

Search period start: 21 August 2014 00:00
Search period end: 31 August 2014 00:00
Orbit: 595 x 664 km, 64.6° (Epoch: 20 August)

Date Brightness Start Highest point End Pass type
(mag) Time Alt. Az. Time Alt. Az. Time Alt. Az.
28 Aug 10.2 05:10:42 10° ESE 05:11:51 11° ESE 05:13:00 10° E visible
29 Aug 9.3 05:28:15 10° SSE 05:32:00 25° ESE 05:35:48 10° ENE visible
30 Aug 7.9 05:47:49 10° SSW 05:52:19 56° ESE 05:56:55 10° NE visible
